QTR3E LIRF-OTHH

Flight info

Callsign QTR3E
Flight time N/A
Altitude 35000
Route SIPRO DCT TEA DCT LUNAR DCT UPLAD DCT ALIXI DCT DINOB DCT KFN UM872 PLH UL604 SALUN N705 MMA P751 DASUM Y234 FYM/N0445F370 M872 BDB Y214 RAPMA/N0438F290 Y214 ASPUS Y432 LADBO T142 LAEEB
Aircraft A320/M-SDE3FGHIRWY/LB1

Departure

Time N/A
Airport Rome–Fiumicino Leonardo da Vinci International Airport (LIRF)

Arrival

Time 2026-05-06 12:23
Airport Hamad International Airport (OTHH)
Time Latitude Longitude Altitude Speed Heading
2026-05-06 09:17 30.52330 28.55560 35136 ft 488 kts 127°
2026-05-06 09:18 30.48421 28.61960 35430 ft 490 kts 128°
2026-05-06 09:18 30.46448 28.65183 35627 ft 490 kts 128°
2026-05-06 09:18 30.44473 28.68407 35846 ft 490 kts 128°
2026-05-06 09:18 30.42498 28.71625 36047 ft 490 kts 128°
2026-05-06 09:19 30.40517 28.74851 36238 ft 491 kts 128°
2026-05-06 09:19 30.38541 28.78071 36432 ft 491 kts 128°
2026-05-06 09:19 30.36563 28.81292 36626 ft 491 kts 128°
2026-05-06 09:19 30.34582 28.84514 36806 ft 491 kts 128°
2026-05-06 09:20 30.32601 28.87735 36979 ft 491 kts 128°
2026-05-06 09:20 30.30615 28.90959 37128 ft 492 kts 128°
2026-05-06 09:20 30.28628 28.94178 37141 ft 492 kts 128°
2026-05-06 09:21 30.24653 29.00619 37143 ft 491 kts 128°
2026-05-06 09:21 30.20679 29.07049 37135 ft 491 kts 128°
2026-05-06 09:22 30.16707 29.13471 37134 ft 491 kts 128°
2026-05-06 09:22 30.12740 29.19904 37135 ft 491 kts 128°
2026-05-06 09:23 30.08811 29.26365 37137 ft 492 kts 127°
2026-05-06 09:23 30.04919 29.32856 37137 ft 492 kts 127°
2026-05-06 09:24 30.01035 29.39306 37136 ft 492 kts 128°
2026-05-06 09:24 29.97115 29.45774 37143 ft 492 kts 128°
2026-05-06 09:25 29.93192 29.52243 37141 ft 491 kts 128°
2026-05-06 09:25 29.89269 29.58698 37136 ft 491 kts 128°
2026-05-06 09:26 29.85344 29.65144 37130 ft 491 kts 128°
2026-05-06 09:26 29.81411 29.71588 37132 ft 491 kts 128°
2026-05-06 09:27 29.77476 29.78022 37123 ft 491 kts 128°
2026-05-06 09:27 29.73543 29.84454 37138 ft 492 kts 128°
2026-05-06 09:28 29.70267 29.89809 37132 ft 492 kts 128°
2026-05-06 09:28 29.65681 29.97283 37134 ft 492 kts 128°
2026-05-06 09:29 29.62375 30.02655 37134 ft 492 kts 128°
2026-05-06 09:29 29.58427 30.09076 37128 ft 492 kts 128°
2026-05-06 09:30 29.53836 30.16533 37133 ft 492 kts 128°
2026-05-06 09:30 29.50526 30.21907 37134 ft 492 kts 128°
2026-05-06 09:31 29.45918 30.29354 37138 ft 492 kts 129°
2026-05-06 09:31 29.42597 30.34717 37139 ft 492 kts 129°
2026-05-06 09:32 29.38427 30.40901 37138 ft 487 kts 138°
2026-05-06 09:32 29.33729 30.46498 37138 ft 487 kts 138°
2026-05-06 09:33 29.29035 30.52080 37137 ft 487 kts 138°
2026-05-06 09:33 29.24340 30.57675 37138 ft 487 kts 138°
2026-05-06 09:34 29.19687 30.63226 37138 ft 486 kts 138°
2026-05-06 09:34 29.14996 30.68800 37137 ft 486 kts 138°
2026-05-06 09:35 29.10298 30.74366 37136 ft 486 kts 138°
2026-05-06 09:35 29.05603 30.79918 37137 ft 486 kts 138°
2026-05-06 09:36 29.00913 30.85472 37134 ft 485 kts 138°
2026-05-06 09:36 28.96222 30.91027 37127 ft 485 kts 138°
2026-05-06 09:37 28.91532 30.96568 37125 ft 485 kts 139°
2026-05-06 09:37 28.86828 31.02099 37129 ft 485 kts 139°
2026-05-06 09:38 28.82125 31.07624 37127 ft 486 kts 139°
2026-05-06 09:38 28.77421 31.13160 37133 ft 486 kts 139°
2026-05-06 09:39 28.72712 31.18683 37141 ft 486 kts 139°
2026-05-06 09:39 28.68012 31.24223 37141 ft 486 kts 137°
2026-05-06 09:40 28.63465 31.29946 37144 ft 487 kts 136°
2026-05-06 09:40 28.56724 31.38605 37143 ft 487 kts 136°
2026-05-06 09:41 28.52186 31.44313 37148 ft 487 kts 137°
2026-05-06 09:41 28.47659 31.49967 37152 ft 486 kts 137°
2026-05-06 09:42 28.43109 31.55653 37150 ft 486 kts 137°
2026-05-06 09:42 28.38566 31.61343 37143 ft 486 kts 137°
2026-05-06 09:43 28.34028 31.67024 37140 ft 485 kts 137°
2026-05-06 09:43 28.29492 31.72695 37138 ft 485 kts 137°
2026-05-06 09:44 28.24947 31.78347 37133 ft 484 kts 137°
2026-05-06 09:44 28.20407 31.83992 37130 ft 484 kts 137°
2026-05-06 09:45 28.15880 31.89630 37127 ft 484 kts 137°
2026-05-06 09:45 28.11345 31.95260 37121 ft 483 kts 137°
2026-05-06 09:46 28.06797 32.00879 37118 ft 483 kts 137°
2026-05-06 09:46 28.02564 32.06820 37114 ft 490 kts 124°
2026-05-06 09:47 27.99287 32.13607 37104 ft 492 kts 122°
2026-05-06 09:47 27.96017 32.20402 37095 ft 491 kts 122°
2026-05-06 09:48 27.92730 32.27183 37082 ft 491 kts 123°
2026-05-06 09:48 27.89449 32.33957 37063 ft 491 kts 122°
2026-05-06 09:49 27.86166 32.40746 37063 ft 492 kts 122°
2026-05-06 09:49 27.82887 32.47517 37063 ft 492 kts 123°
2026-05-06 09:50 27.79603 32.54290 37055 ft 491 kts 123°
2026-05-06 09:50 27.76313 32.61052 37050 ft 491 kts 123°
2026-05-06 09:51 27.73016 32.67817 37046 ft 491 kts 123°
2026-05-06 09:51 27.69721 32.74571 37049 ft 491 kts 123°
2026-05-06 09:52 27.66425 32.81325 37047 ft 491 kts 123°
2026-05-06 09:52 27.63118 32.88072 37042 ft 491 kts 123°
2026-05-06 09:53 27.59832 32.94766 37043 ft 491 kts 123°
2026-05-06 09:53 27.56524 33.01511 37043 ft 491 kts 123°
2026-05-06 09:54 27.53215 33.08244 37035 ft 491 kts 124°
2026-05-06 09:54 27.49879 33.15015 37037 ft 491 kts 124°
2026-05-06 09:55 27.46561 33.21734 37042 ft 491 kts 124°
2026-05-06 09:55 27.43266 33.28409 37040 ft 491 kts 124°
2026-05-06 09:56 27.39940 33.35119 37035 ft 491 kts 124°
2026-05-06 09:56 27.36612 33.41825 37037 ft 491 kts 124°
2026-05-06 09:57 27.33288 33.48529 37047 ft 491 kts 124°
2026-05-06 09:57 27.29953 33.55223 37052 ft 491 kts 124°
2026-05-06 09:58 27.26617 33.61922 37055 ft 491 kts 124°
2026-05-06 09:58 27.23282 33.68609 37061 ft 490 kts 124°
2026-05-06 09:59 27.19945 33.75290 37064 ft 490 kts 124°
2026-05-06 09:59 27.16874 33.82151 37061 ft 496 kts 116°
2026-05-06 10:00 27.14326 33.89340 37060 ft 495 kts 116°
2026-05-06 10:00 27.11774 33.96527 37053 ft 495 kts 116°
2026-05-06 10:01 27.09214 34.03709 37047 ft 495 kts 116°
2026-05-06 10:01 27.06653 34.10881 37043 ft 495 kts 116°
2026-05-06 10:02 27.04089 34.18052 37035 ft 495 kts 116°
2026-05-06 10:02 27.01522 34.25217 37030 ft 495 kts 117°
2026-05-06 10:03 26.98951 34.32372 37023 ft 495 kts 116°
2026-05-06 10:03 26.96374 34.39536 37021 ft 495 kts 117°
2026-05-06 10:04 26.93795 34.46681 37026 ft 495 kts 117°
2026-05-06 10:04 26.91215 34.53832 37024 ft 495 kts 117°
2026-05-06 10:05 26.88635 34.60974 37023 ft 494 kts 117°
2026-05-06 10:05 26.86049 34.68111 37021 ft 494 kts 117°
2026-05-06 10:06 26.83452 34.75241 37019 ft 494 kts 118°
2026-05-06 10:06 26.80859 34.82378 37013 ft 494 kts 118°
2026-05-06 10:07 26.78267 34.89513 37012 ft 494 kts 118°
2026-05-06 10:07 26.75663 34.96641 37005 ft 495 kts 118°
2026-05-06 10:08 26.73063 35.03759 37003 ft 495 kts 118°
2026-05-06 10:08 26.70465 35.10837 36996 ft 495 kts 118°
2026-05-06 10:09 26.67852 35.17958 36997 ft 495 kts 118°
2026-05-06 10:09 26.65241 35.25075 36994 ft 495 kts 118°
2026-05-06 10:10 26.62622 35.32201 36992 ft 495 kts 118°
2026-05-06 10:10 26.60004 35.39314 36996 ft 495 kts 118°
2026-05-06 10:11 26.57370 35.46428 36990 ft 495 kts 119°
2026-05-06 10:11 26.54720 35.53520 36992 ft 494 kts 120°
2026-05-06 10:12 26.52015 35.60575 36982 ft 494 kts 120°
2026-05-06 10:12 26.49298 35.67625 36986 ft 494 kts 120°
2026-05-06 10:13 26.46587 35.74681 36980 ft 494 kts 120°
2026-05-06 10:13 26.44342 35.80552 36980 ft 495 kts 120°
2026-05-06 10:14 26.41639 35.87626 36975 ft 495 kts 120°
2026-05-06 10:14 26.38481 35.95815 36967 ft 495 kts 120°
2026-05-06 10:15 26.36198 36.01718 36966 ft 495 kts 120°
2026-05-06 10:15 26.33481 36.08767 36967 ft 495 kts 121°
2026-05-06 10:16 26.30748 36.15816 36960 ft 495 kts 121°
2026-05-06 10:16 26.28012 36.22857 36954 ft 495 kts 121°
2026-05-06 10:17 26.25276 36.29903 36951 ft 496 kts 121°
2026-05-06 10:17 26.22555 36.36905 36946 ft 496 kts 121°
2026-05-06 10:18 26.19815 36.43957 36949 ft 496 kts 121°
2026-05-06 10:18 26.16920 36.50881 36949 ft 490 kts 127°
2026-05-06 10:19 26.13648 36.57541 36948 ft 490 kts 127°
2026-05-06 10:19 26.10365 36.64186 36948 ft 490 kts 127°
2026-05-06 10:20 26.07075 36.70838 36949 ft 491 kts 127°
2026-05-06 10:20 26.03792 36.77491 36948 ft 491 kts 127°
2026-05-06 10:21 26.00503 36.84148 36953 ft 491 kts 127°
2026-05-06 10:21 25.97206 36.90803 36950 ft 491 kts 127°
2026-05-06 10:22 25.93905 36.97452 36946 ft 492 kts 127°
2026-05-06 10:22 25.90596 37.04104 36941 ft 492 kts 127°
2026-05-06 10:23 25.87305 37.10718 36938 ft 492 kts 127°
2026-05-06 10:23 25.83990 37.17365 36934 ft 493 kts 128°
2026-05-06 10:24 25.80666 37.24025 36935 ft 493 kts 128°
2026-05-06 10:24 25.77346 37.30677 36937 ft 493 kts 127°
2026-05-06 10:25 25.74029 37.37342 36941 ft 494 kts 128°
2026-05-06 10:25 25.70711 37.44008 36956 ft 494 kts 128°
2026-05-06 10:26 25.67381 37.50682 36946 ft 494 kts 127°
2026-05-06 10:26 25.64050 37.57352 36950 ft 495 kts 128°
2026-05-06 10:27 25.60713 37.64022 36944 ft 495 kts 128°
2026-05-06 10:27 25.57368 37.70692 36943 ft 495 kts 128°
2026-05-06 10:28 25.54013 37.77358 36939 ft 495 kts 128°
2026-05-06 10:28 25.50665 37.84023 36937 ft 495 kts 128°
2026-05-06 10:29 25.47308 37.90682 36935 ft 496 kts 128°
2026-05-06 10:29 25.43950 37.97338 36933 ft 496 kts 128°
2026-05-06 10:30 25.40590 38.04004 36927 ft 496 kts 128°
2026-05-06 10:30 25.37217 38.10659 36920 ft 496 kts 128°
2026-05-06 10:31 25.33839 38.17316 36919 ft 496 kts 128°
2026-05-06 10:31 25.30492 38.23926 36920 ft 496 kts 128°
2026-05-06 10:32 25.27122 38.30569 36923 ft 496 kts 128°
2026-05-06 10:32 25.23739 38.37209 36931 ft 496 kts 128°
2026-05-06 10:33 25.20354 38.43839 36936 ft 495 kts 128°
2026-05-06 10:33 25.16968 38.50466 36936 ft 496 kts 128°
2026-05-06 10:34 25.13580 38.57098 36936 ft 496 kts 128°
2026-05-06 10:34 25.10186 38.63724 36940 ft 496 kts 128°
2026-05-06 10:35 25.06795 38.70344 36973 ft 495 kts 129°
2026-05-06 10:35 25.03402 38.76944 36969 ft 493 kts 129°
2026-05-06 10:36 25.00018 38.83506 36970 ft 492 kts 129°
2026-05-06 10:36 24.96635 38.90061 36971 ft 492 kts 129°
2026-05-06 10:37 24.93255 38.96622 36971 ft 491 kts 129°
2026-05-06 10:37 24.89867 39.03159 36971 ft 491 kts 129°
2026-05-06 10:38 24.86481 39.09688 36963 ft 491 kts 129°
2026-05-06 10:38 24.83117 39.16178 36968 ft 491 kts 129°
2026-05-06 10:39 24.79727 39.22705 36967 ft 491 kts 129°
2026-05-06 10:39 24.76339 39.29229 36969 ft 491 kts 129°
2026-05-06 10:40 24.72951 39.35749 36972 ft 491 kts 129°
2026-05-06 10:41 24.69933 39.41498 36975 ft 491 kts 129°
2026-05-06 10:41 24.66530 39.48006 36973 ft 491 kts 129°
2026-05-06 10:42 24.63136 39.54525 36974 ft 491 kts 129°
2026-05-06 10:42 24.59722 39.61041 36970 ft 492 kts 129°
2026-05-06 10:43 24.56356 39.67584 36981 ft 497 kts 123°
2026-05-06 10:43 24.55083 39.71154 36973 ft 508 kts 114°
2026-05-06 10:44 24.53941 39.78923 36964 ft 520 kts 102°
2026-05-06 10:44 24.53200 39.86833 36966 ft 520 kts 102°
2026-05-06 10:45 24.52427 39.94735 36972 ft 520 kts 102°
2026-05-06 10:45 24.51653 40.02634 36979 ft 521 kts 102°
2026-05-06 10:46 24.50882 40.10542 36989 ft 521 kts 102°
2026-05-06 10:46 24.50114 40.18445 36988 ft 521 kts 102°
2026-05-06 10:47 24.49340 40.26350 36989 ft 520 kts 102°
2026-05-06 10:47 24.48556 40.34253 36993 ft 520 kts 102°
2026-05-06 10:48 24.47771 40.42098 36994 ft 520 kts 102°
2026-05-06 10:48 24.46978 40.49998 36996 ft 520 kts 102°
2026-05-06 10:49 24.46185 40.57888 36988 ft 520 kts 103°
2026-05-06 10:49 24.45381 40.65789 36983 ft 520 kts 103°
2026-05-06 10:50 24.44583 40.73668 36992 ft 520 kts 103°
2026-05-06 10:50 24.43776 40.81550 36988 ft 519 kts 103°
2026-05-06 10:51 24.42965 40.89427 36999 ft 519 kts 103°
2026-05-06 10:51 24.42152 40.97287 37003 ft 519 kts 103°
2026-05-06 10:52 24.41334 41.05102 37004 ft 518 kts 103°
2026-05-06 10:52 24.40514 41.12957 37004 ft 518 kts 103°
2026-05-06 10:53 24.39695 41.20807 37004 ft 518 kts 103°
2026-05-06 10:53 24.38872 41.28647 37009 ft 517 kts 103°
2026-05-06 10:54 24.38042 41.36481 37011 ft 517 kts 103°
2026-05-06 10:54 24.37203 41.44310 37009 ft 517 kts 103°
2026-05-06 10:55 24.36359 41.52134 37013 ft 516 kts 103°
2026-05-06 10:55 24.35524 41.59951 37012 ft 516 kts 103°
2026-05-06 10:56 24.34684 41.67770 37011 ft 516 kts 103°
2026-05-06 10:56 24.33835 41.75579 37010 ft 516 kts 103°
2026-05-06 10:57 24.32824 41.83337 37006 ft 509 kts 111°
2026-05-06 10:57 24.30902 41.90754 37002 ft 505 kts 114°
2026-05-06 10:58 24.28951 41.98154 37000 ft 505 kts 114°
2026-05-06 10:58 24.27005 42.05557 37006 ft 505 kts 114°
2026-05-06 10:59 24.25055 42.12955 37007 ft 505 kts 114°
2026-05-06 10:59 24.23428 42.19106 37010 ft 506 kts 114°
2026-05-06 11:00 24.21130 42.27751 37012 ft 506 kts 114°
2026-05-06 11:00 24.19494 42.33904 37012 ft 506 kts 114°
2026-05-06 11:01 24.17532 42.41300 37014 ft 506 kts 113°
2026-05-06 11:01 24.15566 42.48687 37013 ft 506 kts 114°
2026-05-06 11:02 24.13582 42.56075 37016 ft 506 kts 113°
2026-05-06 11:02 24.11608 42.63464 37011 ft 506 kts 113°
2026-05-06 11:03 24.09634 42.70852 37016 ft 505 kts 113°
2026-05-06 11:03 24.07660 42.78227 37014 ft 505 kts 113°
2026-05-06 11:04 24.05670 42.85593 37017 ft 504 kts 113°
2026-05-06 11:04 24.03678 42.92953 37021 ft 504 kts 113°
2026-05-06 11:05 24.01687 43.00295 37019 ft 503 kts 113°
2026-05-06 11:05 23.99692 43.07639 36997 ft 503 kts 113°
2026-05-06 11:06 23.97702 43.14959 36996 ft 502 kts 113°
2026-05-06 11:06 23.95711 43.22275 36991 ft 502 kts 113°
2026-05-06 11:07 23.93714 43.29576 36992 ft 501 kts 113°
2026-05-06 11:07 23.91713 43.36873 36990 ft 501 kts 113°
2026-05-06 11:08 23.89716 43.44171 36988 ft 501 kts 113°
2026-05-06 11:08 23.87721 43.51460 36983 ft 501 kts 113°
2026-05-06 11:09 23.85719 43.58746 36971 ft 500 kts 113°
2026-05-06 11:09 23.83715 43.66020 36965 ft 500 kts 113°
2026-05-06 11:10 23.81713 43.73245 36958 ft 500 kts 113°
2026-05-06 11:10 23.79697 43.80510 36955 ft 500 kts 113°
2026-05-06 11:11 23.77726 43.87811 36951 ft 504 kts 108°
2026-05-06 11:11 23.76904 43.95472 36945 ft 510 kts 99°
2026-05-06 11:12 23.76339 44.03193 36941 ft 510 kts 99°
2026-05-06 11:12 23.75758 44.10897 36937 ft 509 kts 99°
2026-05-06 11:13 23.75179 44.18596 36940 ft 509 kts 99°
2026-05-06 11:13 23.74605 44.26290 36939 ft 508 kts 99°
2026-05-06 11:14 23.74016 44.33977 36941 ft 508 kts 99°
2026-05-06 11:14 23.73422 44.41662 36947 ft 508 kts 99°
2026-05-06 11:15 23.72830 44.49340 36957 ft 507 kts 99°
2026-05-06 11:15 23.72234 44.57006 36956 ft 507 kts 99°
2026-05-06 11:16 23.71639 44.64667 36959 ft 506 kts 99°
2026-05-06 11:16 23.71041 44.72322 36960 ft 506 kts 99°
2026-05-06 11:17 23.70437 44.79973 36959 ft 506 kts 99°
2026-05-06 11:17 23.69820 44.87613 36962 ft 505 kts 99°
2026-05-06 11:18 23.69208 44.95252 36960 ft 505 kts 99°
2026-05-06 11:18 23.68600 45.02888 36959 ft 505 kts 99°
2026-05-06 11:19 23.67985 45.10525 36963 ft 505 kts 99°
2026-05-06 11:19 23.67356 45.18159 36965 ft 505 kts 99°
2026-05-06 11:20 23.66726 45.25780 36960 ft 504 kts 99°
2026-05-06 11:20 23.66098 45.33393 36963 ft 503 kts 99°
2026-05-06 11:21 23.65472 45.40949 36957 ft 503 kts 99°
2026-05-06 11:21 23.64843 45.48549 36945 ft 503 kts 99°
2026-05-06 11:22 23.64210 45.56147 36943 ft 503 kts 99°
2026-05-06 11:22 23.63564 45.63744 36935 ft 502 kts 99°
2026-05-06 11:23 23.62913 45.71318 36941 ft 502 kts 99°
2026-05-06 11:23 23.62258 45.78896 36941 ft 501 kts 99°
2026-05-06 11:24 23.61603 45.86459 36931 ft 501 kts 99°
2026-05-06 11:24 23.60949 45.94027 36936 ft 501 kts 99°
2026-05-06 11:25 23.60300 46.01576 36942 ft 500 kts 99°
2026-05-06 11:25 23.59642 46.09126 36931 ft 500 kts 99°
2026-05-06 11:26 23.58972 46.16673 36932 ft 499 kts 99°
2026-05-06 11:26 23.58302 46.24205 36925 ft 499 kts 99°
2026-05-06 11:27 23.57634 46.31730 36921 ft 499 kts 99°
2026-05-06 11:27 23.56966 46.39256 36912 ft 499 kts 99°
2026-05-06 11:28 23.56285 46.46783 36906 ft 499 kts 99°
2026-05-06 11:28 23.55604 46.54310 36900 ft 499 kts 99°
2026-05-06 11:29 23.54927 46.61793 36889 ft 499 kts 99°
2026-05-06 11:29 23.54231 46.69332 36883 ft 499 kts 99°
2026-05-06 11:30 23.53537 46.76871 36873 ft 499 kts 99°
2026-05-06 11:30 23.52837 46.84400 36869 ft 499 kts 99°
2026-05-06 11:31 23.52137 46.91927 36870 ft 499 kts 99°
2026-05-06 11:31 23.51435 46.99439 36852 ft 499 kts 99°
2026-05-06 11:32 23.50727 47.06953 36853 ft 498 kts 99°
2026-05-06 11:32 23.50018 47.14466 36839 ft 498 kts 99°
2026-05-06 11:33 23.49305 47.21972 36834 ft 498 kts 99°
2026-05-06 11:33 23.48588 47.29485 36828 ft 498 kts 99°
2026-05-06 11:34 23.47869 47.36984 36832 ft 498 kts 99°
2026-05-06 11:34 23.47147 47.44484 36828 ft 497 kts 99°
2026-05-06 11:35 23.46425 47.51974 36828 ft 497 kts 99°
2026-05-06 11:35 23.45691 47.59461 36824 ft 497 kts 99°
2026-05-06 11:36 23.44962 47.66883 36820 ft 496 kts 99°
2026-05-06 11:36 23.44223 47.74357 36816 ft 496 kts 99°
2026-05-06 11:37 23.43486 47.81824 36815 ft 496 kts 99°
2026-05-06 11:37 23.42754 47.89287 36809 ft 495 kts 99°
2026-05-06 11:38 23.42010 47.96734 36805 ft 495 kts 99°
2026-05-06 11:38 23.41258 48.04181 36800 ft 495 kts 99°
2026-05-06 11:39 23.40514 48.11622 36797 ft 494 kts 99°
2026-05-06 11:39 23.39765 48.19063 36790 ft 494 kts 99°
2026-05-06 11:40 23.39009 48.26485 36790 ft 493 kts 99°
2026-05-06 11:40 23.38245 48.33914 36787 ft 493 kts 99°
2026-05-06 11:41 23.37749 48.41373 36787 ft 495 kts 95°
2026-05-06 11:41 23.37551 48.48857 36788 ft 495 kts 94°
2026-05-06 11:42 23.37354 48.56347 36786 ft 494 kts 95°
2026-05-06 11:42 23.37057 48.63818 36785 ft 494 kts 95°
2026-05-06 11:43 23.36708 48.71277 36783 ft 493 kts 95°
2026-05-06 11:43 23.36378 48.78724 36778 ft 493 kts 95°
2026-05-06 11:44 23.35974 48.88640 36771 ft 492 kts 95°
2026-05-06 11:44 23.35661 48.96072 36767 ft 492 kts 95°
2026-05-06 11:45 23.35275 49.04704 36763 ft 491 kts 95°
2026-05-06 11:45 23.34997 49.10926 36760 ft 491 kts 95°
2026-05-06 11:46 23.34663 49.18360 36761 ft 492 kts 95°
2026-05-06 11:46 23.34327 49.25784 36762 ft 491 kts 95°
2026-05-06 11:47 23.33984 49.33206 36763 ft 491 kts 95°
2026-05-06 11:47 23.33638 49.40625 36758 ft 491 kts 95°
2026-05-06 11:48 23.33287 49.48040 36755 ft 491 kts 95°
2026-05-06 11:48 23.32940 49.55461 36754 ft 491 kts 95°
2026-05-06 11:49 23.32595 49.62829 36757 ft 490 kts 95°
2026-05-06 11:49 23.32244 49.70285 36758 ft 490 kts 95°
2026-05-06 11:50 23.31881 49.77700 36757 ft 491 kts 95°
2026-05-06 11:50 23.31508 49.85107 36757 ft 491 kts 95°
2026-05-06 11:51 23.31135 49.92523 36765 ft 491 kts 95°
2026-05-06 11:51 23.30769 49.99895 36766 ft 491 kts 95°
2026-05-06 11:52 23.30400 50.07315 36766 ft 491 kts 95°
2026-05-06 11:52 23.30022 50.14730 36760 ft 491 kts 95°
2026-05-06 11:53 23.29640 50.22147 36762 ft 491 kts 95°
2026-05-06 11:53 23.29251 50.29572 36763 ft 491 kts 95°
2026-05-06 11:54 23.28866 50.36997 36762 ft 491 kts 95°
2026-05-06 11:54 23.28472 50.44407 36757 ft 491 kts 95°
2026-05-06 11:55 23.28069 50.51822 36757 ft 491 kts 95°
2026-05-06 11:55 23.27668 50.59237 36757 ft 491 kts 95°
2026-05-06 11:56 23.27266 50.66666 36754 ft 491 kts 95°
2026-05-06 11:56 23.26857 50.74081 36750 ft 491 kts 95°
2026-05-06 11:57 23.26440 50.81499 36751 ft 491 kts 95°
2026-05-06 11:57 23.26027 50.88860 36750 ft 491 kts 95°
2026-05-06 11:58 23.25612 50.96264 36743 ft 491 kts 95°
2026-05-06 11:58 23.25928 51.03651 36744 ft 492 kts 75°
2026-05-06 11:59 23.27113 51.07134 36739 ft 491 kts 61°
2026-05-06 11:59 23.28952 51.10241 36739 ft 488 kts 48°
2026-05-06 11:59 23.31346 51.12818 36732 ft 483 kts 34°
2026-05-06 11:59 23.34164 51.14779 36626 ft 479 kts 22°
2026-05-06 12:00 23.37252 51.16111 36378 ft 474 kts 11°
2026-05-06 12:00 23.40459 51.16813 36135 ft 468 kts
2026-05-06 12:00 23.43687 51.17047 35889 ft 461 kts 359°
2026-05-06 12:00 23.46824 51.17258 35706 ft 451 kts 359°
2026-05-06 12:01 23.53189 51.17711 35286 ft 470 kts 359°
2026-05-06 12:01 23.56471 51.17953 34585 ft 473 kts 359°
2026-05-06 12:01 23.59750 51.18202 33909 ft 473 kts 359°
2026-05-06 12:02 23.63046 51.18453 33163 ft 473 kts 359°
2026-05-06 12:02 23.66338 51.18704 32374 ft 474 kts 359°
2026-05-06 12:02 23.69583 51.18946 31519 ft 468 kts 359°
2026-05-06 12:02 23.72803 51.19184 30695 ft 459 kts 360°
2026-05-06 12:03 23.75959 51.19418 29897 ft 451 kts 360°
2026-05-06 12:03 23.79078 51.19649 28968 ft 444 kts 360°
2026-05-06 12:03 23.82129 51.19873 28067 ft 436 kts
2026-05-06 12:03 23.85129 51.20094 27374 ft 425 kts
2026-05-06 12:04 23.88002 51.20308 27226 ft 401 kts
2026-05-06 12:04 23.90719 51.20829 27069 ft 395 kts 15°
2026-05-06 12:04 23.93243 51.21919 26917 ft 392 kts 19°
2026-05-06 12:04 23.95767 51.23062 26841 ft 393 kts 19°
2026-05-06 12:05 23.98287 51.24203 26651 ft 392 kts 20°
2026-05-06 12:05 24.00818 51.25351 26138 ft 393 kts 20°
2026-05-06 12:05 24.03401 51.26520 25604 ft 416 kts 20°
2026-05-06 12:05 24.06121 51.27751 25030 ft 428 kts 20°
2026-05-06 12:06 24.08878 51.29006 24456 ft 427 kts 21°
2026-05-06 12:06 24.11618 51.30258 23889 ft 426 kts 21°
2026-05-06 12:06 24.14344 51.31507 23309 ft 424 kts 21°
2026-05-06 12:06 24.17064 51.32751 22672 ft 421 kts 21°
2026-05-06 12:07 24.19761 51.33981 22117 ft 417 kts 21°
2026-05-06 12:07 24.22400 51.35181 21568 ft 414 kts 21°
2026-05-06 12:07 24.25056 51.36389 21015 ft 412 kts 21°
2026-05-06 12:07 24.27692 51.37588 20463 ft 409 kts 21°
2026-05-06 12:08 24.30310 51.38780 19915 ft 406 kts 21°
2026-05-06 12:08 24.32909 51.39966 19368 ft 404 kts 21°
2026-05-06 12:08 24.35501 51.41151 18829 ft 402 kts 22°
2026-05-06 12:08 24.38075 51.42328 18289 ft 400 kts 22°
2026-05-06 12:09 24.40638 51.43501 17710 ft 397 kts 22°
2026-05-06 12:09 24.43183 51.44667 17171 ft 394 kts 22°
2026-05-06 12:09 24.45700 51.45820 16641 ft 390 kts 22°
2026-05-06 12:09 24.48169 51.46952 16129 ft 387 kts 22°
2026-05-06 12:10 24.50649 51.48088 15607 ft 384 kts 22°
2026-05-06 12:10 24.53112 51.49216 15092 ft 381 kts 21°
2026-05-06 12:10 24.55555 51.50333 14577 ft 379 kts 21°
2026-05-06 12:10 24.57963 51.51435 14068 ft 367 kts 21°
2026-05-06 12:11 24.60267 51.52494 13592 ft 351 kts 21°
2026-05-06 12:11 24.62473 51.53509 13089 ft 336 kts 21°
2026-05-06 12:11 24.64582 51.54479 12746 ft 319 kts 22°
2026-05-06 12:11 24.66554 51.55388 12419 ft 304 kts 22°
2026-05-06 12:12 24.68491 51.56280 12023 ft 293 kts 22°
2026-05-06 12:12 24.70314 51.57116 11643 ft 283 kts 22°
2026-05-06 12:12 24.72111 51.57941 11269 ft 277 kts 22°
2026-05-06 12:12 24.73897 51.58762 10896 ft 279 kts 22°
2026-05-06 12:13 24.75694 51.59589 10523 ft 280 kts 22°
2026-05-06 12:13 24.77495 51.60415 10138 ft 281 kts 22°
2026-05-06 12:13 24.79301 51.61243 9760 ft 283 kts 22°
2026-05-06 12:13 24.81129 51.62084 9358 ft 283 kts 22°
2026-05-06 12:14 24.82945 51.62923 8970 ft 282 kts 23°
2026-05-06 12:14 24.84734 51.63747 8591 ft 282 kts 23°
2026-05-06 12:14 24.86548 51.64581 8211 ft 280 kts 23°
2026-05-06 12:14 24.88344 51.65409 7835 ft 279 kts 23°
2026-05-06 12:15 24.90132 51.66235 7463 ft 277 kts 23°
2026-05-06 12:15 24.91906 51.67056 7086 ft 274 kts 23°
2026-05-06 12:15 24.93600 51.67838 6733 ft 261 kts 23°
2026-05-06 12:15 24.95247 51.68598 6385 ft 250 kts 24°
2026-05-06 12:16 24.96821 51.69325 6050 ft 241 kts 23°
2026-05-06 12:16 24.98339 51.70026 5719 ft 232 kts 23°
2026-05-06 12:16 24.99821 51.70710 5399 ft 227 kts 23°
2026-05-06 12:16 25.01251 51.71370 5093 ft 219 kts 23°
2026-05-06 12:17 25.02675 51.71913 4817 ft 213 kts 11°
2026-05-06 12:17 25.04135 51.71950 4529 ft 209 kts 352°
2026-05-06 12:17 25.05489 51.71500 4266 ft 203 kts 340°
2026-05-06 12:17 25.06801 51.70917 3824 ft 206 kts 340°
2026-05-06 12:18 25.08129 51.70333 3482 ft 202 kts 340°
2026-05-06 12:18 25.09394 51.69777 3231 ft 187 kts 340°
2026-05-06 12:18 25.10565 51.69263 2995 ft 176 kts 340°
2026-05-06 12:18 25.11690 51.68769 2777 ft 172 kts 340°
2026-05-06 12:19 25.12795 51.68284 2563 ft 170 kts 340°
2026-05-06 12:19 25.13875 51.67810 2356 ft 167 kts 341°
2026-05-06 12:19 25.14906 51.67356 2166 ft 152 kts 341°
2026-05-06 12:19 25.15867 51.66934 1978 ft 144 kts 342°
2026-05-06 12:20 25.16787 51.66530 1793 ft 140 kts 341°
2026-05-06 12:20 25.17695 51.66132 1622 ft 140 kts 340°
2026-05-06 12:20 25.18593 51.65737 1443 ft 138 kts 340°
2026-05-06 12:20 25.19473 51.65350 1271 ft 138 kts 340°
2026-05-06 12:21 25.20365 51.64958 1091 ft 136 kts 340°
2026-05-06 12:21 25.21241 51.64572 925 ft 136 kts 339°
2026-05-06 12:21 25.22124 51.64186 780 ft 137 kts 341°
2026-05-06 12:21 25.23018 51.63802 611 ft 136 kts 341°
2026-05-06 12:22 25.23900 51.63415 427 ft 137 kts 339°
2026-05-06 12:22 25.24776 51.63024 247 ft 138 kts 341°
2026-05-06 12:22 25.25670 51.62639 54 ft 136 kts 341°
2026-05-06 12:22 25.26504 51.62274 23 ft 111 kts 339°
2026-05-06 12:23 25.26899 51.62079 20 ft 30 kts 323°
2026-05-06 12:23 25.26993 51.61958 20 ft 12 kts 302°
2026-05-06 12:23 25.27016 51.61893 21 ft 8 kts 263°
2026-05-06 12:23 25.26963 51.61867 22 ft 12 kts 162°
2026-05-06 12:24 25.26888 51.61899 21 ft 11 kts 159°
2026-05-06 12:24 25.26822 51.61929 22 ft 10 kts 157°
2026-05-06 12:24 25.26766 51.61956 22 ft 8 kts 156°
2026-05-06 12:24 25.26680 51.61995 22 ft 16 kts 161°
2026-05-06 12:25 25.26587 51.62019 22 ft 11 kts 205°
2026-05-06 12:25 25.26546 51.61953 22 ft 10 kts 249°
2026-05-06 12:25 25.26524 51.61894 22 ft 13 kts 248°
2026-05-06 12:25 25.26485 51.61780 22 ft 11 kts 250°
2026-05-06 12:26 25.26457 51.61703 24 ft 10 kts 248°
2026-05-06 12:26 25.26433 51.61638 22 ft 6 kts 245°
2026-05-06 12:26 25.26405 51.61633 22 ft 4 kts 165°
2026-05-06 12:26 25.26378 51.61645 22 ft 6 kts 159°
2026-05-06 12:27 25.26349 51.61657 22 ft 6 kts 158°
2026-05-06 12:27 25.26339 51.61662 22 ft 0 kts 159°